Date,TemperatureHighF,TemperatureAvgF,TemperatureLowF,DewpointHighF,DewpointAvgF,DewpointLowF,HumidityHigh,HumidityAvg,HumidityLow,PressureMaxIn,PressureMinIn,WindSpeedMaxMPH,WindSpeedAvgMPH,GustSpeedMaxMPH,PrecipitationSumIn
2013-3-1,44.5,41.2,37.4,32.6,31.4,29.1,72,68,61,30.32,30.25,12,3,0,0.00
2013-3-2,59.7,41.3,29.2,30.5,25.9,22.9,81,58,27,30.45,30.26,22,3,0,0.00
2013-3-3,69.2,52.3,32.4,45.4,33.0,24.8,78,51,30,30.27,29.83,20,4,0,0.00
2013-3-4,80.5,65.8,55.1,56.8,50.5,43.6,80,59,36,29.83,29.61,26,8,0,0.00
2013-3-5,63.9,50.9,35.6,54.2,29.8,21.4,71,47,22,30.38,29.75,31,9,0,0.00
2013-3-6,68.5,46.5,29.5,32.2,25.7,18.1,79,48,16,30.49,30.23,13,1,0,0.00
2013-3-7,71.6,53.8,35.2,37.3,30.4,21.6,71,44,21,30.28,30.12,23,3,0,0.00
2013-3-8,65.3,58.7,52.3,56.9,50.9,36.8,84,76,49,30.21,30.02,13,4,0,0.00
2013-3-9,69.7,64.6,59.9,63.7,59.7,55.0,93,84,78,30.02,29.66,22,6,0,0.01
2013-3-10,64.7,50.9,38.9,61.6,43.2,32.7,95,76,59,30.10,29.69,29,8,0,1.21
2013-3-11,63.2,44.0,31.1,35.7,30.7,25.0,94,64,25,30.15,30.03,19,3,0,0.00
2013-3-12,74.1,51.8,32.6,38.0,32.7,28.1,88,53,23,30.32,30.07,15,2,0,0.00
2013-3-13,75.0,55.2,38.9,42.2,36.8,32.7,85,54,26,30.46,30.32,12,2,0,0.00
2013-3-14,75.0,60.5,47.5,51.4,42.6,32.6,67,52,38,30.38,30.19,23,4,0,0.00
2013-3-15,78.8,65.6,53.3,58.0,50.4,44.8,90,61,34,30.19,29.90,22,6,0,0.00
2013-3-16,81.0,68.4,57.8,61.7,56.4,50.6,90,67,47,29.90,29.70,25,6,0,0.00
2013-3-17,76.8,67.5,56.7,63.3,58.5,50.8,89,74,49,29.79,29.66,20,4,0,0.00
2013-3-18,76.8,63.0,51.6,64.1,51.8,38.8,94,69,40,30.02,29.64,18,4,0,0.00
2013-3-19,71.5,56.7,43.1,46.9,40.8,35.7,88,58,37,30.14,29.96,19,4,0,0.00
2013-3-20,74.8,56.5,41.4,40.6,36.4,31.5,81,51,22,30.32,30.05,17,3,0,0.00
2013-3-21,68.3,58.5,47.0,56.7,43.2,32.6,76,57,45,30.05,29.60,21,5,0,0.00
2013-3-22,64.8,54.2,47.0,61.1,50.2,44.9,95,86,71,29.87,29.59,17,5,0,0.00
2013-3-23,57.2,50.3,46.4,52.1,48.0,45.3,97,92,82,29.93,29.68,25,4,0,0.05
2013-3-24,58.1,46.3,38.0,48.5,33.2,24.1,94,63,35,30.20,29.80,31,11,0,0.04
2013-3-25,58.7,42.6,27.1,28.6,22.8,18.1,83,49,22,30.43,30.20,26,4,0,0.00
2013-3-26,65.8,43.5,25.5,31.4,23.9,18.7,78,50,23,30.54,30.34,14,1,0,0.00
2013-3-27,70.5,53.7,38.3,41.5,32.9,24.1,62,47,28,30.36,30.12,21,2,0,0.00
2013-3-28,71.5,61.9,50.4,57.8,52.2,40.8,86,71,60,30.24,30.10,15,3,0,0.00
2013-3-29,74.8,66.6,59.3,60.9,58.1,55.6,88,75,59,30.20,30.04,17,4,0,0.00
2013-3-30,74.3,65.8,55.1,66.5,61.1,54.0,97,85,72,30.09,29.89,20,3,0,0.88
2013-3-31,80.2,67.1,56.9,64.7,59.9,52.1,97,79,52,29.98,29.81,30,4,0,0.26
2013-4-1,83.7,64.8,47.0,57.8,52.0,45.3,100,68,35,30.08,29.94,12,1,0,0.11
2013-4-2,73.0,64.7,50.8,63.7,57.2,42.3,87,77,67,30.03,29.90,26,5,0,0.03
2013-4-3,53.4,48.7,45.0,48.0,45.4,43.6,95,89,76,30.17,29.94,24,6,0,0.02
2013-4-4,53.7,46.3,42.4,47.0,42.5,40.2,95,87,72,30.22,30.12,19,5,0,0.02
2013-4-5,69.0,54.5,39.1,52.2,45.7,37.5,96,74,46,30.28,30.05,9,1,0,0.04
2013-4-6,75.8,63.8,54.0,60.9,53.8,49.2,85,71,50,30.05,29.85,22,5,0,0.05
2013-4-7,72.6,66.4,60.1,62.8,59.9,56.4,89,80,71,29.93,29.75,17,5,0,0.05
2013-4-8,76.5,70.4,64.0,66.0,62.8,58.7,86,77,68,29.77,29.67,21,6,0,0.04
2013-4-9,83.0,74.3,68.7,67.7,65.5,61.9,88,75,56,29.73,29.62,21,6,0,0.01
2013-4-10,73.3,49.6,40.2,69.2,46.6,36.8,96,90,67,29.99,29.68,26,8,0,0.01
2013-4-11,67.8,48.6,37.5,46.0,39.0,34.4,93,72,41,30.00,29.83,18,1,0,0.00
2013-4-12,80.7,58.5,39.3,53.1,45.9,37.3,96,67,34,30.02,29.88,11,1,0,0.01
2013-4-13,81.6,65.4,48.8,56.3,49.8,44.1,88,60,35,30.02,29.79,19,3,0,0.00
2013-4-14,80.4,68.6,56.4,66.5,58.9,47.6,88,72,57,29.79,29.56,19,4,0,0.01
2013-4-15,86.5,75.4,67.6,71.2,67.3,64.6,93,77,54,29.75,29.62,19,5,0,0.00
2013-4-16,89.8,77.8,70.1,70.4,68.0,65.6,89,73,50,29.90,29.74,17,4,0,0.00
2013-4-17,85.5,77.6,73.1,71.1,69.5,67.6,89,77,58,29.88,29.64,24,6,0,0.00
2013-4-18,74.4,55.7,43.8,71.1,49.0,36.0,95,79,54,30.16,29.55,31,10,0,1.00
2013-4-19,66.1,49.4,36.1,42.9,35.6,31.3,92,63,30,30.30,30.14,24,4,0,0.35
2013-4-20,73.9,57.8,41.2,43.4,39.3,35.5,84,53,27,30.24,30.04,20,3,0,0.08
2013-4-21,76.2,59.5,42.1,53.6,47.1,38.9,95,66,39,30.24,30.08,17,2,0,0.00
2013-4-22,78.3,65.0,51.0,61.8,54.4,45.7,88,70,54,30.14,29.86,22,3,0,0.00
2013-4-23,67.6,56.2,43.8,63.3,52.1,39.9,94,86,74,30.17,29.81,22,6,0,0.00
2013-4-24,69.4,52.1,40.5,46.4,40.5,35.7,91,67,38,30.33,30.17,24,5,0,0.00
2013-4-25,78.2,61.5,46.4,52.8,45.3,37.8,80,57,33,30.36,30.17,13,2,0,0.00
2013-4-26,77.0,66.4,56.8,68.0,58.1,46.3,88,75,60,30.19,29.98,16,4,0,0.00
2013-4-27,79.8,69.5,55.8,66.1,61.8,53.1,93,78,50,30.10,29.98,18,4,0,0.00
2013-4-28,83.7,65.6,48.2,68.4,59.2,46.9,100,82,58,30.05,29.87,9,1,0,0.00
2013-4-29,85.4,72.4,60.3,68.4,62.6,58.7,96,74,47,29.91,29.79,17,2,0,0.00
2013-4-30,86.9,71.5,60.5,68.0,62.7,56.3,96,75,49,29.84,29.74,16,2,0,0.00
2013-5-1,89.2,73.3,62.5,69.9,64.4,60.5,96,76,45,29.96,29.79,15,4,0,0.00
2013-5-2,65.8,53.5,42.8,62.4,49.4,38.2,93,86,74,30.33,29.93,31,9,0,0.02
2013-5-3,67.3,48.2,38.9,39.3,36.6,32.0,87,68,28,30.30,30.15,28,10,0,0.00
2013-5-6,79.1,67.5,58.4,58.8,56.1,53.9,87,68,44,30.03,29.99,8,0,0,0.00
2013-5-7,88.2,69.5,51.1,62.2,55.3,48.8,95,65,34,30.08,29.93,15,1,0,0.00
2013-5-8,85.8,72.4,59.3,63.1,58.7,52.9,84,64,43,30.01,29.86,17,2,0,0.00
2013-5-9,72.3,68.4,65.2,67.9,64.6,59.1,97,88,65,29.97,29.83,17,3,0,0.20
2013-5-10,87.1,71.0,63.1,70.0,65.0,60.3,98,83,49,30.03,29.86,11,1,0,0.02
2013-5-11,84.5,69.7,57.6,60.4,55.8,50.0,93,65,34,30.16,30.00,19,4,0,0.00
2013-5-12,82.3,66.3,52.4,54.1,46.9,36.6,83,54,21,30.26,30.14,17,2,0,0.00
2013-5-13,85.8,69.1,51.4,54.7,49.5,43.8,79,53,29,30.25,30.11,16,2,0,0.00
2013-5-14,86.5,73.1,60.4,64.4,57.3,51.3,90,61,32,30.16,29.98,16,3,0,0.00
2013-5-15,78.5,70.4,68.1,69.5,66.1,60.8,96,87,70,30.05,29.79,21,5,0,0.06
2013-5-16,81.1,70.1,62.0,72.2,66.6,60.8,97,89,74,29.89,29.74,17,3,0,0.23
2013-5-17,91.3,79.3,70.6,77.2,72.9,69.1,97,82,58,29.85,29.77,14,2,0,0.03
2013-5-18,91.8,80.6,71.1,75.8,72.0,68.0,91,76,56,29.90,29.75,16,4,0,0.02
2013-5-19,89.9,79.8,70.2,73.2,70.1,67.4,92,74,55,29.84,29.67,22,5,0,0.01
2013-5-20,89.4,79.7,73.0,74.1,71.2,68.9,88,76,58,29.82,29.65,21,5,0,0.01
2013-5-21,85.4,72.6,62.3,74.2,68.0,60.8,97,86,68,29.86,29.64,24,4,0,0.00
2013-5-22,89.8,71.1,55.1,70.3,62.8,53.7,98,78,42,29.95,29.83,11,0,0,0.02
2013-5-23,91.3,77.4,68.5,75.3,71.3,64.5,97,83,59,30.06,29.87,19,2,0,0.01
2013-5-24,87.6,77.8,67.4,77.4,72.2,65.7,96,84,66,30.20,29.98,16,3,0,0.01
2013-5-25,85.3,73.2,67.0,73.9,68.7,65.5,97,87,65,30.15,30.03,14,2,0,0.01
2013-5-26,87.5,77.7,69.5,74.5,71.2,68.0,95,82,60,30.08,29.92,15,3,0,0.01
2013-5-27,87.2,78.5,70.8,71.6,69.7,68.1,93,76,56,29.98,29.79,16,4,0,0.00
2013-5-28,87.4,78.7,71.1,71.2,68.8,66.9,89,73,54,29.88,29.76,20,5,0,0.01
2013-5-29,82.5,76.9,72.6,72.8,70.5,68.7,88,81,71,29.83,29.71,23,6,0,0.01
2013-5-30,87.6,80.0,74.2,76.1,72.7,69.8,88,79,66,29.79,29.68,20,5,0,0.00
2013-5-31,91.5,82.6,76.3,76.2,73.5,72.3,88,75,55,29.82,29.66,20,4,0,0.00
2013-6-1,88.3,80.1,72.9,78.3,72.8,69.0,88,79,64,29.92,29.70,21,5,0,0.01
2013-6-2,86.8,74.7,63.0,69.3,60.8,53.3,89,65,33,30.05,29.91,20,3,0,0.01
2013-6-3,92.3,74.2,57.7,68.1,62.5,55.9,98,70,40,29.99,29.83,10,2,0,0.00
2013-6-4,93.0,79.3,67.2,73.4,68.6,63.4,89,71,48,30.01,29.78,18,3,0,0.00
2013-6-5,92.5,80.4,69.5,76.0,71.3,67.2,94,75,50,29.95,29.73,17,2,0,0.00
2013-6-6,81.1,73.0,66.7,72.6,68.8,64.7,97,87,67,29.92,29.76,22,3,0,0.02
2013-6-7,87.7,72.9,60.3,64.8,61.8,58.6,96,72,40,30.00,29.88,14,2,0,0.01
2013-6-8,90.8,74.8,59.0,67.5,62.7,57.4,98,70,43,29.93,29.79,14,2,0,0.01
2013-6-9,93.8,78.3,68.5,75.7,69.8,63.8,96,76,50,29.92,29.84,16,2,0,0.01
2013-6-10,97.3,82.0,68.6,75.1,70.4,66.5,95,71,39,29.95,29.88,13,2,0,0.01
2013-6-11,93.5,83.2,73.6,76.0,72.9,68.8,94,73,51,30.01,29.90,14,3,0,0.00
2013-6-12,94.2,83.1,74.7,75.0,73.1,70.6,95,74,49,30.05,29.91,19,2,0,0.02
2013-6-13,98.6,84.7,73.0,77.4,73.6,70.5,93,72,43,30.04,29.87,13,2,0,0.00
2013-6-14,97.1,85.3,73.1,79.3,73.8,70.1,91,70,47,29.97,29.85,11,0,0,0.00
2013-6-15,92.3,81.3,73.0,78.5,74.1,69.2,94,80,60,29.99,29.86,24,2,0,0.01
2013-6-16,96.2,84.4,74.6,77.9,73.5,70.3,95,72,45,30.00,29.85,13,2,0,0.00
2013-6-17,90.8,80.0,69.0,81.0,73.9,67.0,96,82,63,30.02,29.84,19,1,0,0.01
2013-6-18,86.6,76.9,71.1,75.2,71.8,69.0,93,85,67,29.99,29.86,18,2,0,0.00
2013-6-19,95.1,79.9,67.7,79.6,73.0,66.5,98,81,54,29.99,29.86,11,2,0,0.00
2013-6-20,96.0,84.2,75.0,74.7,72.3,69.9,93,70,45,30.03,29.91,16,3,0,0.00
2013-6-21,96.8,83.8,74.9,76.2,72.8,70.6,90,72,44,30.06,29.96,15,3,0,0.00
2013-12-24,53.0,44.0,27.8,36.8,33.5,26.6,95,67,48,30.58,30.31,6,3,11,0.00
2013-12-25,59.7,43.1,32.7,45.8,36.6,29.3,92,78,58,30.44,30.31,7,2,11,0.00
2013-12-26,57.9,40.6,30.4,42.2,34.9,28.6,95,82,54,30.48,30.36,4,0,6,0.00
2013-12-27,63.4,43.5,29.4,44.8,36.1,27.8,97,78,40,30.49,30.35,3,0,7,0.01
2013-12-28,60.7,47.0,35.4,44.1,38.6,33.6,97,75,48,30.35,30.00,5,1,10,0.00
2013-12-29,54.4,41.5,32.5,45.7,34.0,25.2,92,75,66,30.31,29.97,10,3,18,0.00
2013-12-30,49.9,35.3,28.1,28.6,24.6,20.9,79,66,42,30.45,30.27,8,2,12,0.00
2013-12-31,58.2,39.0,23.7,30.7,26.4,21.2,93,64,33,30.48,30.25,4,0,8,0.00
2014-1-1,65.7,48.1,35.3,51.3,39.4,29.3,88,73,57,30.26,29.90,17,5,26,0.00
2014-1-2,48.5,32.9,24.4,29.4,21.8,18.9,80,65,36,30.50,30.19,17,5,24,0.00